User: anonymous   Login
Location: Unspecified
(0.0000°N, 0.0000°E)
Time: 17:01:37
(UTC+01:00)
Language:

SeaSat 1 - Orbit

View from above orbital plane
View from above orbital plane
View from above satellite
View from above satellite

Ground track
Ground track

The orbit data is extracted from the following two-line orbital elements,

1 10967U 78064A   15087.50059474  .00000535  00000-0  19895-3 0  9991
2 10967 107.9941 044.2847 0002525 258.1239 101.9622 14.43326352929474
Epoch (UTC): 28 March 2015 12:00:51
Eccentricity: 0.0002525
inclination: 107.9941°
perigee height: 746 km
apogee height: 749 km
right ascension of ascending node: 44.2847°
argument of perigee: 258.1239°
revolutions per day: 14.43326352
mean anomaly at epoch: 101.9622°
orbit number at epoch: 92947

The dashed part of the orbit path shows where the satellite is in the earth's shadow,  

DLR